Wetterdaten: Samstag, 18.07.2009
Datum Zeit Temp. I. Temp. A. Boden 5 cm Feuchte A. Sonne Luftdruck Regen Wind
18.07.2009 00:02 24,4 C 18,1 C 17,6 C 77 % 0 % 1003 hPa 0,0 l/m 36,7 km/h (5 Bft)
18.07.2009 00:05 24,4 C 18,1 C 17,5 C 77 % 0 % 1003 hPa 0,0 l/m 31,8 km/h (5 Bft)
18.07.2009 00:08 24,4 C 17,6 C 17,4 C 78 % 0 % 1004 hPa 0,0 l/m 30,3 km/h (5 Bft)
18.07.2009 00:11 24,4 C 17,5 C 17,4 C 79 % 0 % 1004 hPa 0,0 l/m 36,3 km/h (5 Bft)
18.07.2009 00:14 24,3 C 17,3 C 17,2 C 79 % 0 % 1004 hPa 0,0 l/m 47,6 km/h (6 Bft)
18.07.2009 00:17 24,3 C 17,1 C 17,0 C 79 % 0 % 1004 hPa 0,0 l/m 40,9 km/h (6 Bft)
18.07.2009 00:20 24,3 C 17,1 C 16,8 C 79 % 0 % 1004 hPa 0,0 l/m 47,2 km/h (6 Bft)
18.07.2009 00:23 24,3 C 17,1 C 16,6 C 79 % 0 % 1004 hPa 0,0 l/m 39,2 km/h (6 Bft)
18.07.2009 00:26 24,3 C 16,5 C 16,6 C 80 % 0 % 1004 hPa 0,0 l/m 49,4 km/h (6 Bft)
18.07.2009 00:29 24,2 C 16,4 C 16,5 C 81 % 0 % 1004 hPa 0,0 l/m 34,6 km/h (5 Bft)
18.07.2009 00:32 24,2 C 16,2 C 16,6 C 81 % 0 % 1004 hPa 0,0 l/m 34,5 km/h (5 Bft)
18.07.2009 00:35 24,2 C 16,2 C 16,6 C 81 % 0 % 1005 hPa 0,0 l/m 34,1 km/h (5 Bft)
18.07.2009 00:38 24,2 C 16,1 C 16,5 C 81 % 0 % 1005 hPa 0,0 l/m 29,2 km/h (5 Bft)
18.07.2009 00:41 24,2 C 16,0 C 16,6 C 81 % 0 % 1005 hPa 0,0 l/m 32,5 km/h (5 Bft)
18.07.2009 00:44 24,2 C 15,8 C 16,6 C 81 % 0 % 1005 hPa 0,0 l/m 37,7 km/h (5 Bft)
18.07.2009 00:47 24,2 C 15,8 C 16,3 C 81 % 0 % 1005 hPa 0,0 l/m 34,1 km/h (5 Bft)
18.07.2009 00:50 24,2 C 15,7 C 16,1 C 81 % 0 % 1005 hPa 0,0 l/m 39,6 km/h (6 Bft)
18.07.2009 00:53 24,2 C 15,6 C 16,1 C 81 % 0 % 1005 hPa 0,0 l/m 40,4 km/h (6 Bft)
18.07.2009 00:56 24,2 C 15,6 C 16,0 C 81 % 0 % 1005 hPa 0,0 l/m 42,7 km/h (6 Bft)
18.07.2009 00:59 24,2 C 15,6 C 16,1 C 81 % 0 % 1005 hPa 0,0 l/m 35,7 km/h (5 Bft)
18.07.2009 01:02 24,2 C 15,6 C 15,9 C 81 % 0 % 1005 hPa 0,0 l/m 38,7 km/h (5 Bft)
18.07.2009 01:05 24,2 C 15,5 C 16,0 C 81 % 0 % 1005 hPa 0,0 l/m 39,7 km/h (6 Bft)
18.07.2009 01:08 24,2 C 15,5 C 16,0 C 80 % 0 % 1005 hPa 0,0 l/m 36,9 km/h (5 Bft)
18.07.2009 01:11 24,2 C 15,5 C 16,0 C 80 % 0 % 1005 hPa 0,0 l/m 34,1 km/h (5 Bft)
18.07.2009 01:14 24,2 C 15,4 C 16,0 C 80 % 0 % 1005 hPa 0,0 l/m 30,6 km/h (5 Bft)
18.07.2009 01:17 24,2 C 15,4 C 16,0 C 80 % 0 % 1005 hPa 0,0 l/m 25,6 km/h (4 Bft)
18.07.2009 01:20 24,2 C 15,4 C 16,0 C 80 % 0 % 1005 hPa 0,0 l/m 33,4 km/h (5 Bft)
18.07.2009 01:23 24,2 C 15,4 C 16,1 C 80 % 0 % 1005 hPa 0,0 l/m 29,1 km/h (5 Bft)
18.07.2009 01:26 24,2 C 15,4 C 16,1 C 81 % 0 % 1005 hPa 0,0 l/m 30,0 km/h (5 Bft)
18.07.2009 01:29 24,2 C 15,4 C 15,9 C 80 % 0 % 1005 hPa 0,0 l/m 29,5 km/h (5 Bft)
18.07.2009 01:32 24,2 C 15,4 C 16,1 C 80 % 0 % 1005 hPa 0,0 l/m 17,6 km/h (3 Bft)
18.07.2009 01:35 24,2 C 15,3 C 15,9 C 80 % 0 % 1005 hPa 0,0 l/m 31,5 km/h (5 Bft)
18.07.2009 01:38 24,2 C 15,3 C 15,8 C 80 % 0 % 1005 hPa 0,0 l/m 27,8 km/h (4 Bft)
18.07.2009 01:41 24,2 C 15,3 C 16,0 C 80 % 0 % 1005 hPa 0,0 l/m 25,3 km/h (4 Bft)
18.07.2009 01:44 24,2 C 15,3 C 16,0 C 80 % 0 % 1006 hPa 0,0 l/m 25,3 km/h (4 Bft)
18.07.2009 01:47 24,2 C 15,3 C 16,1 C 81 % 0 % 1006 hPa 0,0 l/m 18,8 km/h (3 Bft)
18.07.2009 01:50 24,2 C 15,3 C 16,1 C 81 % 0 % 1006 hPa 0,0 l/m 17,4 km/h (3 Bft)
18.07.2009 01:53 24,2 C 15,3 C 16,2 C 80 % 0 % 1006 hPa 0,0 l/m 17,4 km/h (3 Bft)
18.07.2009 01:56 24,2 C 15,3 C 16,0 C 80 % 0 % 1006 hPa 0,0 l/m 26,6 km/h (4 Bft)
18.07.2009 01:59 24,2 C 15,3 C 15,9 C 80 % 0 % 1006 hPa 0,0 l/m 20,5 km/h (4 Bft)
18.07.2009 02:02 24,2 C 15,3 C 15,9 C 79 % 0 % 1006 hPa 0,0 l/m 23,0 km/h (4 Bft)
18.07.2009 02:05 24,1 C 15,3 C 15,9 C 79 % 0 % 1006 hPa 0,0 l/m 27,1 km/h (4 Bft)
18.07.2009 02:08 24,2 C 15,3 C 15,9 C 79 % 0 % 1006 hPa 0,0 l/m 21,6 km/h (4 Bft)
18.07.2009 02:11 24,2 C 15,2 C 15,8 C 80 % 0 % 1006 hPa 0,0 l/m 21,6 km/h (4 Bft)
18.07.2009 02:14 24,2 C 15,2 C 15,8 C 79 % 0 % 1006 hPa 0,0 l/m 27,1 km/h (4 Bft)
18.07.2009 02:17 24,2 C 15,2 C 15,6 C 78 % 0 % 1006 hPa 0,0 l/m 33,0 km/h (5 Bft)
18.07.2009 02:20 24,1 C 15,2 C 15,8 C 78 % 0 % 1006 hPa 0,0 l/m 26,0 km/h (4 Bft)
18.07.2009 02:23 24,1 C 15,1 C 15,7 C 79 % 0 % 1005 hPa 0,0 l/m 26,0 km/h (4 Bft)
18.07.2009 02:26 24,1 C 15,1 C 15,8 C 79 % 0 % 1005 hPa 0,0 l/m 17,5 km/h (3 Bft)
18.07.2009 02:29 24,1 C 15,0 C 15,6 C 79 % 0 % 1005 hPa 0,0 l/m 19,6 km/h (3 Bft)
18.07.2009 02:32 24,1 C 15,0 C 15,6 C 79 % 0 % 1005 hPa 0,0 l/m 28,4 km/h (4 Bft)
18.07.2009 02:35 24,1 C 15,0 C 15,5 C 79 % 0 % 1006 hPa 0,0 l/m 23,5 km/h (4 Bft)
18.07.2009 02:38 24,1 C 15,0 C 15,7 C 79 % 0 % 1006 hPa 0,0 l/m 19,6 km/h (3 Bft)
18.07.2009 02:41 24,1 C 15,0 C 15,7 C 79 % 0 % 1006 hPa 0,0 l/m 21,3 km/h (4 Bft)
18.07.2009 02:44 24,1 C 15,0 C 15,8 C 80 % 0 % 1006 hPa 0,0 l/m 21,3 km/h (4 Bft)
18.07.2009 02:47 24,1 C 15,0 C 15,7 C 80 % 0 % 1006 hPa 0,0 l/m 18,0 km/h (3 Bft)
18.07.2009 02:50 24,1 C 15,0 C 15,6 C 79 % 0 % 1006 hPa 0,0 l/m 22,1 km/h (4 Bft)
18.07.2009 02:54 24,1 C 15,0 C 15,8 C 80 % 0 % 1006 hPa 0,0 l/m 22,5 km/h (4 Bft)
18.07.2009 02:57 24,1 C 15,0 C 15,7 C 80 % 0 % 1005 hPa 0,0 l/m 16,5 km/h (3 Bft)
18.07.2009 03:00 24,1 C 15,0 C 15,9 C 80 % 0 % 1006 hPa 0,0 l/m 19,1 km/h (3 Bft)
18.07.2009 03:03 24,1 C 15,0 C 15,9 C 80 % 0 % 1006 hPa 0,0 l/m 19,1 km/h (3 Bft)
18.07.2009 03:06 24,1 C 15,0 C 15,9 C 80 % 0 % 1006 hPa 0,0 l/m 19,1 km/h (3 Bft)
18.07.2009 03:09 24,1 C 15,0 C 15,9 C 80 % 0 % 1006 hPa 0,0 l/m 19,1 km/h (3 Bft)
18.07.2009 03:12 24,1 C 15,0 C 15,9 C 80 % 0 % 1006 hPa 0,0 l/m 19,1 km/h (3 Bft)
18.07.2009 03:15 24,1 C 15,0 C 15,5 C 80 % 0 % 1006 hPa 0,0 l/m 19,1 km/h (3 Bft)
18.07.2009 03:18 24,1 C 15,0 C 15,6 C 80 % 0 % 1006 hPa 0,0 l/m 19,1 km/h (3 Bft)
18.07.2009 03:21 24,1 C 15,0 C 15,5 C 80 % 0 % 1006 hPa 0,0 l/m 19,1 km/h (3 Bft)
18.07.2009 03:24 24,1 C 15,0 C 15,6 C 80 % 0 % 1006 hPa 0,0 l/m 21,9 km/h (4 Bft)
18.07.2009 03:27 24,1 C 15,0 C 15,5 C 80 % 0 % 1006 hPa 0,0 l/m 16,8 km/h (3 Bft)
18.07.2009 03:30 24,1 C 15,0 C 15,5 C 80 % 0 % 1006 hPa 0,0 l/m 21,2 km/h (4 Bft)
18.07.2009 03:33 24,1 C 15,0 C 15,5 C 80 % 0 % 1006 hPa 0,0 l/m 22,8 km/h (4 Bft)
18.07.2009 03:36 24,1 C 15,0 C 15,3 C 80 % 0 % 1006 hPa 0,0 l/m 24,0 km/h (4 Bft)
18.07.2009 03:39 24,1 C 15,0 C 15,5 C 80 % 0 % 1006 hPa 0,0 l/m 22,2 km/h (4 Bft)
18.07.2009 03:42 24,1 C 15,0 C 15,5 C 80 % 0 % 1006 hPa 0,0 l/m 19,5 km/h (3 Bft)
18.07.2009 03:45 24,1 C 15,0 C 15,4 C 80 % 0 % 1006 hPa 0,0 l/m 20,2 km/h (4 Bft)
18.07.2009 03:48 24,1 C 15,0 C 15,3 C 80 % 0 % 1006 hPa 0,0 l/m 22,5 km/h (4 Bft)
18.07.2009 03:51 24,1 C 15,0 C 15,2 C 80 % 0 % 1006 hPa 0,0 l/m 18,2 km/h (3 Bft)
18.07.2009 03:54 24,1 C 14,7 C 15,2 C 82 % 0 % 1006 hPa 0,0 l/m 19,8 km/h (3 Bft)
18.07.2009 03:57 24,1 C 14,7 C 15,4 C 82 % 0 % 1006 hPa 0,0 l/m 12,5 km/h (3 Bft)
18.07.2009 04:00 24,1 C 14,6 C 15,4 C 83 % 0 % 1006 hPa 0,0 l/m 17,3 km/h (3 Bft)
18.07.2009 04:03 24,1 C 14,5 C 15,3 C 84 % 0 % 1006 hPa 0,0 l/m 12,3 km/h (3 Bft)
18.07.2009 04:06 24,1 C 14,5 C 15,3 C 84 % 0 % 1006 hPa 0,0 l/m 14,4 km/h (3 Bft)
18.07.2009 04:09 24,1 C 14,4 C 15,2 C 86 % 0 % 1006 hPa 0,0 l/m 11,0 km/h (2 Bft)
18.07.2009 04:12 24,1 C 14,4 C 15,2 C 85 % 0 % 1006 hPa 0,0 l/m 11,8 km/h (2 Bft)
18.07.2009 04:15 24,1 C 14,4 C 15,2 C 85 % 0 % 1006 hPa 0,0 l/m 14,7 km/h (3 Bft)
18.07.2009 04:18 24,1 C 14,4 C 15,0 C 85 % 0 % 1006 hPa 0,0 l/m 15,6 km/h (3 Bft)
18.07.2009 04:21 24,1 C 14,2 C 15,0 C 88 % 0 % 1006 hPa 0,0 l/m 15,5 km/h (3 Bft)
18.07.2009 04:24 24,1 C 14,2 C 15,0 C 88 % 0 % 1006 hPa 0,0 l/m 15,5 km/h (3 Bft)
18.07.2009 04:27 24,1 C 14,1 C 15,0 C 88 % 0 % 1006 hPa 0,0 l/m 15,8 km/h (3 Bft)
18.07.2009 04:30 24,1 C 14,0 C 14,8 C 89 % 0 % 1006 hPa 0,0 l/m 19,6 km/h (3 Bft)
18.07.2009 04:33 24,1 C 14,0 C 14,3 C 89 % 0 % 1006 hPa 0,0 l/m 20,9 km/h (4 Bft)
18.07.2009 04:36 24,1 C 14,0 C 14,4 C 90 % 0 % 1006 hPa 0,0 l/m 18,1 km/h (3 Bft)
18.07.2009 04:39 24,1 C 14,0 C 14,5 C 90 % 0 % 1006 hPa 0,0 l/m 15,6 km/h (3 Bft)
18.07.2009 04:42 24,1 C 14,0 C 14,4 C 90 % 0 % 1006 hPa 0,0 l/m 15,6 km/h (3 Bft)
18.07.2009 04:45 24,1 C 13,9 C 14,6 C 90 % 0 % 1006 hPa 0,0 l/m 11,8 km/h (2 Bft)
18.07.2009 04:48 24,1 C 13,9 C 14,5 C 91 % 0 % 1006 hPa 0,3 l/m 12,2 km/h (2 Bft)
18.07.2009 04:51 24,1 C 13,9 C 14,4 C 91 % 0 % 1006 hPa 0,0 l/m 17,0 km/h (3 Bft)
18.07.2009 04:54 24,1 C 13,8 C 14,2 C 91 % 0 % 1006 hPa 0,0 l/m 16,7 km/h (3 Bft)
18.07.2009 04:57 24,1 C 13,8 C 14,2 C 92 % 0 % 1006 hPa 0,3 l/m 13,0 km/h (3 Bft)
18.07.2009 05:00 24,1 C 13,8 C 14,4 C 92 % 0 % 1006 hPa 0,0 l/m 13,0 km/h (3 Bft)
18.07.2009 05:03 24,1 C 13,7 C 14,3 C 91 % 0 % 1006 hPa 0,0 l/m 17,4 km/h (3 Bft)
18.07.2009 05:06 24,1 C 13,6 C 13,9 C 90 % 0 % 1006 hPa 0,3 l/m 20,2 km/h (4 Bft)
18.07.2009 05:09 24,0 C 13,4 C 13,8 C 90 % 0 % 1006 hPa 0,0 l/m 24,1 km/h (4 Bft)
18.07.2009 05:12 24,0 C 13,4 C 13,5 C 90 % 0 % 1006 hPa 0,3 l/m 20,0 km/h (4 Bft)
18.07.2009 05:15 24,1 C 13,4 C 13,5 C 90 % 0 % 1006 hPa 0,0 l/m 25,6 km/h (4 Bft)
18.07.2009 05:18 24,0 C 13,2 C 13,6 C 91 % 0 % 1006 hPa 0,0 l/m 20,8 km/h (4 Bft)
18.07.2009 05:21 24,0 C 13,2 C 13,5 C 91 % 0 % 1006 hPa 0,0 l/m 15,4 km/h (3 Bft)
18.07.2009 05:24 24,1 C 13,2 C 13,5 C 91 % 0 % 1006 hPa 0,0 l/m 15,4 km/h (3 Bft)
18.07.2009 05:27 24,0 C 13,1 C 13,7 C 91 % 0 % 1006 hPa 0,3 l/m 17,9 km/h (3 Bft)
18.07.2009 05:30 24,0 C 13,2 C 13,7 C 92 % 0 % 1006 hPa 0,0 l/m 12,4 km/h (3 Bft)
18.07.2009 05:33 24,1 C 13,1 C 13,7 C 92 % 0 % 1006 hPa 0,0 l/m 13,8 km/h (3 Bft)
18.07.2009 05:36 24,0 C 13,0 C 13,9 C 92 % 0 % 1006 hPa 0,0 l/m 16,6 km/h (3 Bft)
18.07.2009 05:39 24,1 C 13,0 C 13,7 C 92 % 0 % 1006 hPa 0,0 l/m 13,2 km/h (3 Bft)
18.07.2009 05:42 24,0 C 13,1 C 13,9 C 93 % 0 % 1006 hPa 0,3 l/m 11,8 km/h (2 Bft)
18.07.2009 05:45 24,1 C 13,0 C 13,9 C 93 % 0 % 1006 hPa 0,0 l/m 11,8 km/h (2 Bft)
18.07.2009 05:48 24,0 C 13,1 C 13,9 C 93 % 0 % 1006 hPa 0,0 l/m 11,8 km/h (2 Bft)
18.07.2009 05:51 23,8 C 13,1 C 13,8 C 93 % 0 % 1006 hPa 0,3 l/m 15,1 km/h (3 Bft)
18.07.2009 05:54 23,8 C 13,1 C 13,6 C 93 % 0 % 1006 hPa 0,0 l/m 20,3 km/h (4 Bft)
18.07.2009 05:57 23,8 C 13,1 C 13,6 C 93 % 0 % 1006 hPa 0,3 l/m 20,3 km/h (4 Bft)
18.07.2009 06:00 23,8 C 13,1 C 13,6 C 92 % 0 % 1006 hPa 0,0 l/m 16,1 km/h (3 Bft)
18.07.2009 06:03 23,8 C 12,9 C 13,6 C 92 % 0 % 1006 hPa 0,0 l/m 17,0 km/h (3 Bft)
18.07.2009 06:06 23,8 C 12,9 C 13,8 C 93 % 0 % 1006 hPa 0,3 l/m 15,3 km/h (3 Bft)
18.07.2009 06:09 23,9 C 12,9 C 14,0 C 93 % 0 % 1006 hPa 0,0 l/m 13,5 km/h (3 Bft)
18.07.2009 06:12 23,9 C 12,9 C 13,8 C 93 % 0 % 1006 hPa 0,0 l/m 12,3 km/h (3 Bft)
18.07.2009 06:15 23,9 C 12,9 C 13,8 C 93 % 0 % 1006 hPa 0,0 l/m 16,1 km/h (3 Bft)
18.07.2009 06:18 23,9 C 12,9 C 13,8 C 93 % 0 % 1006 hPa 0,0 l/m 15,6 km/h (3 Bft)
18.07.2009 06:21 23,9 C 12,8 C 13,6 C 93 % 0 % 1006 hPa 0,3 l/m 18,2 km/h (3 Bft)
18.07.2009 06:24 24,0 C 12,8 C 13,6 C 93 % 0 % 1006 hPa 0,3 l/m 16,6 km/h (3 Bft)
18.07.2009 06:27 23,9 C 12,8 C 13,6 C 93 % 0 % 1006 hPa 0,0 l/m 15,5 km/h (3 Bft)
18.07.2009 06:30 23,9 C 12,7 C 13,6 C 93 % 0 % 1006 hPa 0,3 l/m 13,3 km/h (3 Bft)
18.07.2009 06:33 24,0 C 12,8 C 13,6 C 93 % 0 % 1006 hPa 0,0 l/m 19,5 km/h (3 Bft)
18.07.2009 06:36 24,0 C 12,7 C 13,6 C 93 % 0 % 1006 hPa 0,0 l/m 15,6 km/h (3 Bft)
18.07.2009 06:39 24,0 C 12,8 C 13,6 C 93 % 0 % 1006 hPa 0,3 l/m 15,7 km/h (3 Bft)
18.07.2009 06:42 24,0 C 12,8 C 13,9 C 93 % 0 % 1006 hPa 0,3 l/m 8,5 km/h (2 Bft)
18.07.2009 06:45 24,0 C 12,7 C 13,9 C 93 % 0 % 1006 hPa 0,0 l/m 8,5 km/h (2 Bft)
18.07.2009 06:48 24,0 C 12,7 C 13,9 C 94 % 0 % 1006 hPa 0,3 l/m 6,8 km/h (2 Bft)
18.07.2009 06:51 24,0 C 12,7 C 13,9 C 94 % 0 % 1006 hPa 0,3 l/m 7,6 km/h (2 Bft)
18.07.2009 06:54 24,0 C 12,8 C 13,9 C 94 % 0 % 1006 hPa 0,0 l/m 8,6 km/h (2 Bft)
18.07.2009 06:57 24,0 C 12,8 C 13,9 C 94 % 0 % 1006 hPa 0,3 l/m 6,1 km/h (2 Bft)
18.07.2009 07:00 24,0 C 12,8 C 14,0 C 94 % 0 % 1006 hPa 0,3 l/m 6,1 km/h (2 Bft)
18.07.2009 07:03 24,0 C 12,8 C 14,0 C 94 % 0 % 1006 hPa 0,0 l/m 6,1 km/h (2 Bft)
18.07.2009 07:06 24,0 C 12,8 C 13,9 C 94 % 0 % 1006 hPa 0,3 l/m 7,5 km/h (2 Bft)
18.07.2009 07:09 24,0 C 12,8 C 13,7 C 94 % 0 % 1006 hPa 0,0 l/m 11,3 km/h (2 Bft)
18.07.2009 07:12 24,0 C 12,8 C 13,8 C 94 % 0 % 1006 hPa 0,3 l/m 9,8 km/h (2 Bft)
18.07.2009 07:15 24,0 C 12,9 C 13,8 C 94 % 0 % 1006 hPa 0,3 l/m 8,7 km/h (2 Bft)
18.07.2009 07:18 24,0 C 12,9 C 13,7 C 94 % 0 % 1006 hPa 0,3 l/m 6,3 km/h (2 Bft)
18.07.2009 07:21 24,0 C 13,0 C 13,8 C 94 % 0 % 1006 hPa 0,3 l/m 5,9 km/h (2 Bft)
18.07.2009 07:24 24,0 C 13,1 C 13,8 C 94 % 0 % 1006 hPa 0,3 l/m 6,3 km/h (2 Bft)
18.07.2009 07:27 24,0 C 13,0 C 13,8 C 93 % 0 % 1006 hPa 0,3 l/m 5,0 km/h (1 Bft)
18.07.2009 07:30 24,0 C 13,0 C 13,8 C 94 % 0 % 1006 hPa 0,3 l/m 6,3 km/h (2 Bft)
18.07.2009 07:33 24,0 C 12,9 C 13,5 C 94 % 0 % 1006 hPa 0,7 l/m 6,3 km/h (2 Bft)
18.07.2009 07:36 24,0 C 12,9 C 13,4 C 93 % 0 % 1006 hPa 1,4 l/m 10,2 km/h (2 Bft)
18.07.2009 07:39 23,9 C 12,9 C 13,4 C 93 % 0 % 1006 hPa 0,3 l/m 6,0 km/h (2 Bft)
18.07.2009 07:42 24,0 C 12,8 C 13,4 C 93 % 0 % 1006 hPa 0,3 l/m 10,6 km/h (2 Bft)
18.07.2009 07:45 23,9 C 12,8 C 13,4 C 94 % 0 % 1006 hPa 0,7 l/m 11,9 km/h (2 Bft)
18.07.2009 07:48 23,9 C 12,9 C 13,2 C 94 % 0 % 1006 hPa 0,0 l/m 11,8 km/h (2 Bft)
18.07.2009 07:51 24,0 C 12,9 C 13,3 C 94 % 0 % 1006 hPa 0,7 l/m 12,6 km/h (3 Bft)
18.07.2009 07:54 24,0 C 12,8 C 13,3 C 94 % 0 % 1006 hPa 0,3 l/m 11,2 km/h (2 Bft)
18.07.2009 07:57 24,0 C 13,0 C 13,3 C 94 % 0 % 1006 hPa 0,7 l/m 11,1 km/h (2 Bft)
18.07.2009 08:00 24,0 C 12,9 C 13,3 C 94 % 0 % 1006 hPa 0,3 l/m 10,5 km/h (2 Bft)
18.07.2009 08:03 24,0 C 12,9 C 13,4 C 94 % 0 % 1006 hPa 0,3 l/m 8,9 km/h (2 Bft)
18.07.2009 08:06 23,4 C 12,9 C 13,3 C 94 % 0 % 1006 hPa 0,3 l/m 11,8 km/h (2 Bft)
18.07.2009 08:09 23,2 C 12,9 C 13,2 C 94 % 0 % 1006 hPa 0,7 l/m 11,0 km/h (2 Bft)
18.07.2009 08:12 23,2 C 12,8 C 13,0 C 94 % 0 % 1006 hPa 0,3 l/m 13,7 km/h (3 Bft)
18.07.2009 08:15 23,4 C 12,7 C 12,9 C 94 % 0 % 1006 hPa 0,3 l/m 15,0 km/h (3 Bft)
18.07.2009 08:18 23,4 C 12,7 C 13,0 C 94 % 0 % 1006 hPa 0,7 l/m 15,0 km/h (3 Bft)
18.07.2009 08:21 23,5 C 12,5 C 12,8 C 94 % 0 % 1006 hPa 0,3 l/m 18,8 km/h (3 Bft)
18.07.2009 08:24 23,5 C 12,5 C 12,7 C 94 % 0 % 1006 hPa 0,7 l/m 13,5 km/h (3 Bft)
18.07.2009 08:27 23,6 C 12,4 C 12,5 C 94 % 0 % 1006 hPa 0,3 l/m 17,3 km/h (3 Bft)
18.07.2009 08:30 23,6 C 12,3 C 12,4 C 94 % 0 % 1006 hPa 0,3 l/m 17,5 km/h (3 Bft)
18.07.2009 08:33 23,7 C 12,2 C 12,4 C 94 % 0 % 1006 hPa 0,0 l/m 24,8 km/h (4 Bft)
18.07.2009 08:36 23,7 C 12,2 C 12,1 C 94 % 0 % 1006 hPa 1,0 l/m 21,6 km/h (4 Bft)
18.07.2009 08:39 23,7 C 12,0 C 12,0 C 94 % 0 % 1006 hPa 0,3 l/m 23,1 km/h (4 Bft)
18.07.2009 08:42 23,8 C 11,8 C 12,0 C 94 % 0 % 1007 hPa 0,3 l/m 18,3 km/h (3 Bft)
18.07.2009 08:45 23,8 C 11,8 C 12,1 C 94 % 0 % 1007 hPa 0,3 l/m 18,2 km/h (3 Bft)
18.07.2009 08:48 23,9 C 11,8 C 12,1 C 94 % 0 % 1007 hPa 0,3 l/m 18,1 km/h (3 Bft)
18.07.2009 08:51 23,9 C 11,8 C 12,1 C 94 % 0 % 1007 hPa 0,3 l/m 18,1 km/h (3 Bft)
18.07.2009 08:54 24,0 C 11,8 C 11,9 C 94 % 0 % 1007 hPa 0,3 l/m 19,2 km/h (3 Bft)
18.07.2009 08:57 24,0 C 11,8 C 11,8 C 94 % 0 % 1007 hPa 0,3 l/m 23,4 km/h (4 Bft)
18.07.2009 09:00 24,0 C 11,7 C 11,8 C 94 % 0 % 1007 hPa 0,3 l/m 17,7 km/h (3 Bft)
18.07.2009 09:03 24,0 C 11,7 C 11,5 C 94 % 0 % 1007 hPa 0,7 l/m 22,0 km/h (4 Bft)
18.07.2009 09:06 24,0 C 11,5 C 11,5 C 94 % 0 % 1007 hPa 0,3 l/m 26,7 km/h (4 Bft)
18.07.2009 09:09 24,0 C 11,4 C 11,5 C 94 % 0 % 1007 hPa 0,0 l/m 21,5 km/h (4 Bft)
18.07.2009 09:12 23,9 C 11,4 C 11,4 C 94 % 0 % 1007 hPa 1,4 l/m 23,3 km/h (4 Bft)
18.07.2009 09:15 23,9 C 11,3 C 11,4 C 94 % 0 % 1007 hPa 0,0 l/m 27,5 km/h (4 Bft)
18.07.2009 09:18 23,9 C 11,2 C 11,4 C 94 % 0 % 1007 hPa 1,0 l/m 27,5 km/h (4 Bft)
18.07.2009 09:21 23,9 C 11,2 C 11,4 C 94 % 0 % 1007 hPa 0,3 l/m 16,3 km/h (3 Bft)
18.07.2009 09:24 23,9 C 11,2 C 11,6 C 94 % 0 % 1007 hPa 0,3 l/m 16,6 km/h (3 Bft)
18.07.2009 09:27 24,0 C 11,3 C 11,5 C 94 % 0 % 1007 hPa 0,3 l/m 25,0 km/h (4 Bft)
18.07.2009 09:30 23,9 C 11,2 C 11,5 C 94 % 0 % 1007 hPa 0,3 l/m 21,8 km/h (4 Bft)
18.07.2009 09:33 23,9 C 11,2 C 11,6 C 94 % 0 % 1007 hPa 0,0 l/m 21,8 km/h (4 Bft)
18.07.2009 09:36 23,9 C 11,2 C 11,5 C 94 % 0 % 1007 hPa 0,3 l/m 18,5 km/h (3 Bft)
18.07.2009 09:39 24,0 C 11,2 C 11,6 C 94 % 0 % 1007 hPa 0,0 l/m 20,0 km/h (4 Bft)
18.07.2009 09:42 24,0 C 11,2 C 11,6 C 95 % 0 % 1007 hPa 0,3 l/m 20,5 km/h (4 Bft)
18.07.2009 09:45 24,0 C 11,2 C 11,5 C 94 % 0 % 1007 hPa 0,3 l/m 20,5 km/h (4 Bft)
18.07.2009 09:48 24,0 C 11,1 C 11,6 C 94 % 0 % 1007 hPa 0,3 l/m 14,4 km/h (3 Bft)
18.07.2009 09:51 24,0 C 11,2 C 11,5 C 94 % 0 % 1007 hPa 0,3 l/m 14,7 km/h (3 Bft)
18.07.2009 09:54 24,1 C 11,2 C 11,5 C 95 % 0 % 1007 hPa 0,3 l/m 21,2 km/h (4 Bft)
18.07.2009 09:57 24,1 C 11,2 C 11,4 C 95 % 0 % 1007 hPa 0,3 l/m 21,5 km/h (4 Bft)
18.07.2009 10:00 24,2 C 11,0 C 11,3 C 94 % 0 % 1007 hPa 0,7 l/m 22,4 km/h (4 Bft)
18.07.2009 10:03 24,2 C 11,1 C 11,4 C 95 % 0 % 1007 hPa 0,0 l/m 16,8 km/h (3 Bft)
18.07.2009 10:06 24,2 C 11,2 C 11,4 C 95 % 0 % 1007 hPa 0,3 l/m 19,3 km/h (3 Bft)
18.07.2009 10:09 24,2 C 11,1 C 11,4 C 94 % 0 % 1007 hPa 0,0 l/m 18,5 km/h (3 Bft)
18.07.2009 10:12 24,2 C 11,0 C 11,4 C 94 % 0 % 1007 hPa 0,7 l/m 21,4 km/h (4 Bft)
18.07.2009 10:15 24,2 C 11,0 C 11,4 C 94 % 0 % 1007 hPa 0,0 l/m 25,2 km/h (4 Bft)
18.07.2009 10:18 24,2 C 10,9 C 11,4 C 94 % 0 % 1007 hPa 0,3 l/m 17,1 km/h (3 Bft)
18.07.2009 10:21 24,2 C 10,9 C 11,5 C 94 % 0 % 1007 hPa 0,3 l/m 20,8 km/h (4 Bft)
18.07.2009 10:24 24,2 C 10,9 C 11,5 C 94 % 0 % 1007 hPa 0,0 l/m 25,9 km/h (4 Bft)
18.07.2009 10:27 24,2 C 10,9 C 11,3 C 94 % 0 % 1007 hPa 0,3 l/m 22,1 km/h (4 Bft)
18.07.2009 10:30 24,2 C 10,9 C 11,4 C 94 % 0 % 1007 hPa 0,3 l/m 22,1 km/h (4 Bft)
18.07.2009 10:33 24,2 C 10,9 C 11,4 C 94 % 0 % 1007 hPa 0,3 l/m 17,0 km/h (3 Bft)
18.07.2009 10:36 24,2 C 10,9 C 11,5 C 94 % 0 % 1007 hPa 0,0 l/m 19,0 km/h (3 Bft)
18.07.2009 10:39 24,2 C 10,9 C 11,3 C 94 % 0 % 1007 hPa 0,3 l/m 26,4 km/h (4 Bft)
18.07.2009 10:42 24,2 C 11,0 C 11,6 C 95 % 0 % 1007 hPa 0,0 l/m 21,5 km/h (4 Bft)
18.07.2009 10:45 24,2 C 11,0 C 11,5 C 95 % 0 % 1007 hPa 0,0 l/m 19,6 km/h (3 Bft)
18.07.2009 10:48 24,2 C 10,9 C 11,5 C 94 % 0 % 1007 hPa 0,7 l/m 26,0 km/h (4 Bft)
18.07.2009 10:51 24,2 C 10,9 C 11,5 C 94 % 0 % 1007 hPa 0,3 l/m 23,1 km/h (4 Bft)
18.07.2009 10:54 24,2 C 10,9 C 11,5 C 94 % 0 % 1007 hPa 0,0 l/m 16,8 km/h (3 Bft)
18.07.2009 10:57 24,2 C 11,0 C 11,5 C 94 % 0 % 1007 hPa 0,3 l/m 16,8 km/h (3 Bft)
18.07.2009 11:00 24,2 C 10,9 C 11,5 C 94 % 0 % 1007 hPa 0,0 l/m 19,9 km/h (4 Bft)
18.07.2009 11:03 24,2 C 10,9 C 11,4 C 94 % 0 % 1007 hPa 0,3 l/m 19,9 km/h (4 Bft)
18.07.2009 11:06 24,1 C 10,9 C 11,5 C 94 % 0 % 1007 hPa 0,0 l/m 19,6 km/h (3 Bft)
18.07.2009 11:09 24,1 C 10,8 C 11,6 C 94 % 0 % 1007 hPa 0,0 l/m 19,8 km/h (3 Bft)
18.07.2009 11:12 24,0 C 10,9 C 11,6 C 95 % 0 % 1007 hPa 0,3 l/m 19,8 km/h (3 Bft)
18.07.2009 11:15 24,0 C 10,9 C 11,5 C 94 % 0 % 1007 hPa 0,0 l/m 22,3 km/h (4 Bft)
18.07.2009 11:18 24,0 C 10,8 C 11,6 C 94 % 0 % 1007 hPa 0,0 l/m 19,0 km/h (3 Bft)
18.07.2009 11:21 23,9 C 10,8 C 11,6 C 94 % 0 % 1007 hPa 0,3 l/m 16,3 km/h (3 Bft)
18.07.2009 11:24 23,9 C 11,0 C 11,8 C 95 % 0 % 1007 hPa 0,0 l/m 14,5 km/h (3 Bft)
18.07.2009 11:27 23,8 C 11,1 C 11,8 C 95 % 0 % 1007 hPa 0,0 l/m 14,5 km/h (3 Bft)
18.07.2009 11:30 24,0 C 11,1 C 11,7 C 95 % 0 % 1007 hPa 0,0 l/m 14,6 km/h (3 Bft)
18.07.2009 11:33 24,1 C 11,1 C 11,8 C 95 % 0 % 1007 hPa 0,3 l/m 14,6 km/h (3 Bft)
18.07.2009 11:36 24,2 C 11,1 C 11,9 C 95 % 0 % 1007 hPa 0,0 l/m 16,6 km/h (3 Bft)
18.07.2009 11:39 24,2 C 11,3 C 11,9 C 95 % 0 % 1007 hPa 0,3 l/m 17,3 km/h (3 Bft)
18.07.2009 11:42 24,3 C 11,3 C 11,9 C 95 % 0 % 1007 hPa 0,0 l/m 22,3 km/h (4 Bft)
18.07.2009 11:45 24,3 C 11,3 C 11,9 C 94 % 0 % 1007 hPa 0,0 l/m 19,6 km/h (3 Bft)
18.07.2009 11:48 24,3 C 11,3 C 11,9 C 94 % 0 % 1007 hPa 0,3 l/m 17,8 km/h (3 Bft)
18.07.2009 11:51 24,3 C 11,3 C 11,9 C 94 % 0 % 1008 hPa 0,0 l/m 15,3 km/h (3 Bft)
18.07.2009 11:54 24,3 C 11,4 C 12,0 C 95 % 0 % 1008 hPa 0,3 l/m 10,0 km/h (2 Bft)
18.07.2009 11:57 24,3 C 11,4 C 12,2 C 95 % 0 % 1008 hPa 0,0 l/m 17,4 km/h (3 Bft)
18.07.2009 12:00 24,3 C 11,6 C 12,1 C 95 % 0 % 1008 hPa 0,3 l/m 14,3 km/h (3 Bft)
18.07.2009 12:03 24,2 C 11,6 C 12,0 C 94 % 0 % 1008 hPa 0,0 l/m 14,7 km/h (3 Bft)
18.07.2009 12:06 24,2 C 11,5 C 12,0 C 94 % 0 % 1008 hPa 0,0 l/m 19,1 km/h (3 Bft)
18.07.2009 12:09 24,2 C 11,5 C 12,0 C 94 % 0 % 1008 hPa 0,3 l/m 22,4 km/h (4 Bft)
18.07.2009 12:12 24,2 C 11,6 C 12,1 C 94 % 0 % 1008 hPa 0,0 l/m 16,0 km/h (3 Bft)
18.07.2009 12:15 24,2 C 11,6 C 12,0 C 94 % 0 % 1008 hPa 0,3 l/m 15,9 km/h (3 Bft)
18.07.2009 12:18 24,2 C 11,6 C 12,0 C 94 % 0 % 1008 hPa 0,0 l/m 20,7 km/h (4 Bft)
18.07.2009 12:21 24,2 C 11,5 C 11,9 C 94 % 0 % 1008 hPa 0,0 l/m 15,8 km/h (3 Bft)
18.07.2009 12:24 24,1 C 11,5 C 11,9 C 94 % 0 % 1008 hPa 0,3 l/m 15,8 km/h (3 Bft)
18.07.2009 12:27 24,2 C 11,5 C 11,9 C 94 % 0 % 1008 hPa 0,0 l/m 26,3 km/h (4 Bft)
18.07.2009 12:30 24,2 C 11,4 C 11,7 C 94 % 0 % 1008 hPa 0,0 l/m 19,5 km/h (3 Bft)
18.07.2009 12:33 24,2 C 11,4 C 11,8 C 94 % 0 % 1008 hPa 0,3 l/m 18,1 km/h (3 Bft)
18.07.2009 12:36 24,2 C 11,5 C 12,0 C 94 % 0 % 1008 hPa 0,0 l/m 12,0 km/h (2 Bft)
18.07.2009 12:39 24,1 C 11,5 C 11,9 C 94 % 0 % 1008 hPa 0,0 l/m 23,2 km/h (4 Bft)
18.07.2009 12:42 23,8 C 11,4 C 11,7 C 93 % 0 % 1008 hPa 0,0 l/m 25,5 km/h (4 Bft)
18.07.2009 12:45 23,8 C 11,4 C 11,6 C 93 % 0 % 1008 hPa 0,3 l/m 26,0 km/h (4 Bft)
18.07.2009 12:48 22,6 C 11,3 C 11,5 C 93 % 0 % 1008 hPa 0,0 l/m 27,1 km/h (4 Bft)
18.07.2009 12:51 22,7 C 11,2 C 11,6 C 93 % 0 % 1008 hPa 0,0 l/m 22,6 km/h (4 Bft)
18.07.2009 12:54 22,9 C 11,2 C 11,8 C 93 % 0 % 1008 hPa 0,3 l/m 26,1 km/h (4 Bft)
18.07.2009 12:57 23,0 C 11,2 C 12,0 C 94 % 0 % 1008 hPa 0,0 l/m 25,6 km/h (4 Bft)
18.07.2009 13:00 23,2 C 11,3 C 12,0 C 94 % 0 % 1008 hPa 0,0 l/m 25,7 km/h (4 Bft)
18.07.2009 13:03 23,3 C 11,3 C 12,4 C 94 % 0 % 1008 hPa 0,3 l/m 19,8 km/h (3 Bft)
18.07.2009 13:06 23,4 C 11,4 C 12,5 C 94 % 0 % 1008 hPa 0,0 l/m 18,8 km/h (3 Bft)
18.07.2009 13:09 23,5 C 11,6 C 12,8 C 94 % 0 % 1008 hPa 0,0 l/m 18,0 km/h (3 Bft)
18.07.2009 13:12 23,5 C 11,7 C 12,7 C 94 % 0 % 1008 hPa 0,0 l/m 19,3 km/h (3 Bft)
18.07.2009 13:15 23,6 C 11,8 C 12,9 C 94 % 0 % 1008 hPa 0,3 l/m 23,2 km/h (4 Bft)
18.07.2009 13:18 23,6 C 11,9 C 12,8 C 94 % 0 % 1008 hPa 0,0 l/m 23,2 km/h (4 Bft)
18.07.2009 13:21 23,6 C 11,9 C 12,8 C 94 % 0 % 1008 hPa 0,0 l/m 21,6 km/h (4 Bft)
18.07.2009 13:24 23,6 C 11,9 C 12,6 C 94 % 0 % 1008 hPa 0,0 l/m 23,8 km/h (4 Bft)
18.07.2009 13:27 23,7 C 11,9 C 13,0 C 94 % 0 % 1008 hPa 0,3 l/m 21,2 km/h (4 Bft)
18.07.2009 13:30 23,7 C 12,0 C 13,1 C 94 % 0 % 1008 hPa 0,0 l/m 26,0 km/h (4 Bft)
18.07.2009 13:33 23,7 C 12,0 C 13,2 C 93 % 0 % 1008 hPa 0,0 l/m 25,1 km/h (4 Bft)
18.07.2009 13:36 23,7 C 12,0 C 13,1 C 94 % 0 % 1008 hPa 0,0 l/m 25,5 km/h (4 Bft)
18.07.2009 13:39 23,7 C 12,1 C 13,0 C 94 % 0 % 1008 hPa 0,0 l/m 23,5 km/h (4 Bft)
18.07.2009 13:42 23,7 C 12,2 C 12,8 C 93 % 0 % 1008 hPa 0,0 l/m 24,3 km/h (4 Bft)
18.07.2009 13:45 23,8 C 12,2 C 12,7 C 93 % 0 % 1008 hPa 0,0 l/m 22,8 km/h (4 Bft)
18.07.2009 13:48 23,7 C 12,1 C 12,6 C 92 % 0 % 1008 hPa 0,0 l/m 21,3 km/h (4 Bft)
18.07.2009 13:51 23,8 C 12,1 C 12,5 C 93 % 0 % 1009 hPa 0,0 l/m 23,1 km/h (4 Bft)
18.07.2009 13:54 23,8 C 12,1 C 12,7 C 93 % 0 % 1009 hPa 0,0 l/m 19,8 km/h (3 Bft)
18.07.2009 13:57 23,7 C 12,1 C 12,9 C 93 % 0 % 1009 hPa 0,0 l/m 21,9 km/h (4 Bft)
18.07.2009 14:00 23,7 C 12,1 C 13,0 C 94 % 0 % 1009 hPa 0,0 l/m 19,9 km/h (4 Bft)
18.07.2009 14:03 23,7 C 12,2 C 12,9 C 94 % 0 % 1009 hPa 0,0 l/m 22,3 km/h (4 Bft)
18.07.2009 14:06 23,8 C 12,3 C 13,1 C 94 % 0 % 1009 hPa 0,0 l/m 20,6 km/h (4 Bft)
18.07.2009 14:09 23,8 C 12,4 C 12,9 C 94 % 0 % 1009 hPa 0,0 l/m 21,9 km/h (4 Bft)
18.07.2009 14:12 23,7 C 12,3 C 13,0 C 92 % 0 % 1009 hPa 0,3 l/m 20,0 km/h (4 Bft)
18.07.2009 14:15 23,7 C 12,6 C 13,0 C 95 % 0 % 1008 hPa 0,0 l/m 23,1 km/h (4 Bft)
18.07.2009 14:18 23,7 C 12,7 C 13,1 C 94 % 0 % 1008 hPa 0,0 l/m 23,1 km/h (4 Bft)
18.07.2009 14:21 23,6 C 12,7 C 13,5 C 94 % 0 % 1008 hPa 0,0 l/m 16,1 km/h (3 Bft)
18.07.2009 14:24 23,7 C 12,8 C 13,9 C 92 % 0 % 1008 hPa 0,0 l/m 15,7 km/h (3 Bft)
18.07.2009 14:27 23,7 C 12,8 C 14,4 C 92 % 0 % 1008 hPa 0,0 l/m 13,9 km/h (3 Bft)
18.07.2009 14:30 23,7 C 12,9 C 14,5 C 92 % 0 % 1008 hPa 0,0 l/m 17,8 km/h (3 Bft)
18.07.2009 14:33 23,8 C 12,9 C 14,7 C 92 % 0 % 1008 hPa 0,0 l/m 17,9 km/h (3 Bft)
18.07.2009 14:36 23,8 C 12,9 C 14,7 C 91 % 0 % 1008 hPa 0,0 l/m 16,3 km/h (3 Bft)
18.07.2009 14:39 23,8 C 13,0 C 14,7 C 91 % 0 % 1007 hPa 0,0 l/m 12,1 km/h (2 Bft)
18.07.2009 14:42 23,9 C 13,1 C 15,3 C 92 % 0 % 1007 hPa 0,0 l/m 12,0 km/h (2 Bft)
18.07.2009 14:45 23,9 C 13,3 C 16,0 C 92 % 0 % 1007 hPa 0,0 l/m 10,5 km/h (2 Bft)
18.07.2009 14:48 23,9 C 13,4 C 16,2 C 91 % 0 % 1007 hPa 0,0 l/m 11,2 km/h (2 Bft)
18.07.2009 14:51 24,0 C 13,4 C 15,8 C 90 % 0 % 1007 hPa 0,0 l/m 11,2 km/h (2 Bft)
18.07.2009 14:54 24,0 C 13,4 C 15,3 C 90 % 0 % 1007 hPa 0,0 l/m 12,0 km/h (2 Bft)
18.07.2009 14:57 24,0 C 13,4 C 15,0 C 89 % 0 % 1007 hPa 0,0 l/m 14,3 km/h (3 Bft)
18.07.2009 15:00 24,0 C 13,2 C 14,2 C 88 % 0 % 1007 hPa 0,0 l/m 17,5 km/h (3 Bft)
18.07.2009 15:03 24,0 C 13,2 C 13,9 C 89 % 0 % 1007 hPa 0,0 l/m 13,3 km/h (3 Bft)
18.07.2009 15:06 24,0 C 13,2 C 13,8 C 89 % 0 % 1007 hPa 0,0 l/m 13,3 km/h (3 Bft)
18.07.2009 15:09 24,0 C 13,1 C 13,5 C 90 % 0 % 1006 hPa 0,0 l/m 13,6 km/h (3 Bft)
18.07.2009 15:12 24,0 C 13,0 C 13,8 C 90 % 0 % 1006 hPa 0,0 l/m 18,8 km/h (3 Bft)
18.07.2009 15:15 24,0 C 13,0 C 13,4 C 89 % 0 % 1006 hPa 0,0 l/m 20,9 km/h (4 Bft)
18.07.2009 15:18 24,0 C 13,0 C 13,2 C 90 % 0 % 1006 hPa 0,0 l/m 18,3 km/h (3 Bft)
18.07.2009 15:21 24,0 C 12,9 C 13,6 C 90 % 0 % 1006 hPa 0,0 l/m 15,8 km/h (3 Bft)
18.07.2009 15:24 24,0 C 13,0 C 13,6 C 91 % 0 % 1006 hPa 0,0 l/m 15,0 km/h (3 Bft)
18.07.2009 15:27 24,0 C 13,1 C 13,2 C 91 % 0 % 1007 hPa 0,0 l/m 14,1 km/h (3 Bft)
18.07.2009 15:30 24,0 C 13,1 C 13,2 C 91 % 0 % 1007 hPa 0,0 l/m 7,3 km/h (2 Bft)
18.07.2009 15:33 24,0 C 13,1 C 13,2 C 91 % 0 % 1007 hPa 0,0 l/m 11,0 km/h (2 Bft)
18.07.2009 15:36 24,0 C 13,0 C 12,5 C 91 % 0 % 1008 hPa 0,0 l/m 17,8 km/h (3 Bft)
18.07.2009 15:39 24,0 C 12,9 C 12,5 C 90 % 0 % 1008 hPa 0,0 l/m 17,3 km/h (3 Bft)
18.07.2009 15:42 24,0 C 12,8 C 12,5 C 91 % 0 % 1008 hPa 0,0 l/m 19,6 km/h (3 Bft)
18.07.2009 15:45 24,0 C 12,8 C 12,5 C 91 % 0 % 1008 hPa 0,0 l/m 24,3 km/h (4 Bft)
18.07.2009 15:48 24,0 C 12,7 C 12,6 C 91 % 0 % 1008 hPa 0,0 l/m 19,7 km/h (3 Bft)
18.07.2009 15:51 24,0 C 12,6 C 12,7 C 91 % 0 % 1007 hPa 0,0 l/m 20,4 km/h (4 Bft)
18.07.2009 15:54 24,0 C 12,6 C 12,9 C 91 % 0 % 1007 hPa 0,0 l/m 18,3 km/h (3 Bft)
18.07.2009 15:57 24,0 C 12,6 C 13,0 C 91 % 0 % 1007 hPa 0,0 l/m 19,1 km/h (3 Bft)
18.07.2009 16:00 24,0 C 12,7 C 12,8 C 92 % 0 % 1008 hPa 0,0 l/m 20,2 km/h (4 Bft)
18.07.2009 16:03 24,0 C 12,7 C 12,8 C 92 % 0 % 1008 hPa 0,0 l/m 20,5 km/h (4 Bft)
18.07.2009 16:06 24,0 C 12,6 C 12,6 C 91 % 0 % 1008 hPa 0,0 l/m 18,6 km/h (3 Bft)
18.07.2009 16:09 24,0 C 12,6 C 12,6 C 91 % 0 % 1007 hPa 0,0 l/m 18,6 km/h (3 Bft)
18.07.2009 16:12 24,0 C 12,6 C 12,7 C 91 % 0 % 1007 hPa 0,0 l/m 17,5 km/h (3 Bft)
18.07.2009 16:15 24,0 C 12,6 C 12,8 C 92 % 0 % 1007 hPa 0,0 l/m 18,0 km/h (3 Bft)
18.07.2009 16:18 24,0 C 12,6 C 12,8 C 92 % 0 % 1007 hPa 0,0 l/m 13,3 km/h (3 Bft)
18.07.2009 16:21 24,0 C 12,6 C 12,7 C 91 % 0 % 1007 hPa 0,0 l/m 19,4 km/h (3 Bft)
18.07.2009 16:24 24,0 C 12,6 C 12,7 C 91 % 0 % 1007 hPa 0,0 l/m 23,4 km/h (4 Bft)
18.07.2009 16:27 24,0 C 12,6 C 12,8 C 91 % 0 % 1007 hPa 0,0 l/m 23,4 km/h (4 Bft)
18.07.2009 16:30 24,0 C 12,7 C 13,0 C 92 % 0 % 1008 hPa 0,0 l/m 15,1 km/h (3 Bft)
18.07.2009 16:33 24,0 C 12,7 C 13,2 C 92 % 0 % 1008 hPa 0,0 l/m 13,1 km/h (3 Bft)
18.07.2009 16:36 23,9 C 12,8 C 13,0 C 92 % 0 % 1008 hPa 0,0 l/m 12,3 km/h (3 Bft)
18.07.2009 16:39 23,9 C 12,8 C 13,0 C 92 % 0 % 1008 hPa 0,0 l/m 17,0 km/h (3 Bft)
18.07.2009 16:42 24,0 C 12,8 C 13,0 C 92 % 0 % 1008 hPa 0,0 l/m 24,9 km/h (4 Bft)
18.07.2009 16:45 24,0 C 12,8 C 13,1 C 92 % 0 % 1008 hPa 0,0 l/m 20,4 km/h (4 Bft)
18.07.2009 16:48 23,9 C 12,7 C 13,1 C 92 % 0 % 1008 hPa 0,0 l/m 21,0 km/h (4 Bft)
18.07.2009 16:51 23,9 C 12,8 C 13,2 C 92 % 0 % 1008 hPa 0,0 l/m 19,7 km/h (3 Bft)
18.07.2009 16:54 24,0 C 12,7 C 12,9 C 92 % 0 % 1008 hPa 0,0 l/m 18,3 km/h (3 Bft)
18.07.2009 16:57 23,9 C 12,7 C 12,9 C 92 % 0 % 1008 hPa 0,0 l/m 18,3 km/h (3 Bft)
18.07.2009 17:00 23,9 C 12,8 C 12,8 C 92 % 0 % 1008 hPa 0,0 l/m 16,0 km/h (3 Bft)
18.07.2009 17:03 23,9 C 12,8 C 12,7 C 92 % 0 % 1008 hPa 0,0 l/m 20,4 km/h (4 Bft)
18.07.2009 17:06 23,9 C 12,8 C 12,7 C 92 % 0 % 1008 hPa 0,0 l/m 20,4 km/h (4 Bft)
18.07.2009 17:09 23,9 C 12,6 C 12,8 C 93 % 0 % 1008 hPa 0,0 l/m 16,1 km/h (3 Bft)
18.07.2009 17:12 23,8 C 12,6 C 12,7 C 93 % 0 % 1008 hPa 0,0 l/m 16,1 km/h (3 Bft)
18.07.2009 17:15 23,9 C 12,6 C 12,7 C 93 % 0 % 1008 hPa 0,0 l/m 26,4 km/h (4 Bft)
18.07.2009 17:18 23,8 C 12,6 C 12,7 C 92 % 0 % 1008 hPa 0,0 l/m 16,6 km/h (3 Bft)
18.07.2009 17:21 23,9 C 12,5 C 12,5 C 92 % 0 % 1008 hPa 0,0 l/m 14,6 km/h (3 Bft)
18.07.2009 17:24 23,9 C 12,5 C 12,6 C 92 % 0 % 1008 hPa 0,0 l/m 22,3 km/h (4 Bft)
18.07.2009 17:27 23,9 C 12,5 C 12,6 C 92 % 0 % 1008 hPa 0,0 l/m 17,3 km/h (3 Bft)
18.07.2009 17:30 24,0 C 12,4 C 12,5 C 92 % 0 % 1008 hPa 0,0 l/m 18,3 km/h (3 Bft)
18.07.2009 17:33 23,9 C 12,4 C 12,6 C 92 % 0 % 1008 hPa 0,0 l/m 14,8 km/h (3 Bft)
18.07.2009 17:36 23,9 C 12,4 C 12,8 C 93 % 0 % 1008 hPa 0,0 l/m 17,0 km/h (3 Bft)
18.07.2009 17:39 24,0 C 12,4 C 12,7 C 93 % 0 % 1008 hPa 0,0 l/m 15,5 km/h (3 Bft)
18.07.2009 17:42 24,0 C 12,4 C 12,7 C 93 % 0 % 1008 hPa 0,0 l/m 15,5 km/h (3 Bft)
18.07.2009 17:45 24,0 C 12,4 C 12,6 C 93 % 0 % 1008 hPa 0,0 l/m 19,0 km/h (3 Bft)
18.07.2009 17:48 24,0 C 12,4 C 12,7 C 93 % 0 % 1008 hPa 0,0 l/m 19,1 km/h (3 Bft)
18.07.2009 17:51 23,9 C 12,4 C 12,7 C 93 % 0 % 1008 hPa 0,0 l/m 18,1 km/h (3 Bft)
18.07.2009 17:54 23,9 C 12,4 C 12,8 C 93 % 0 % 1008 hPa 0,0 l/m 19,5 km/h (3 Bft)
18.07.2009 17:57 24,0 C 12,4 C 12,6 C 93 % 0 % 1008 hPa 0,0 l/m 17,9 km/h (3 Bft)
18.07.2009 18:00 24,0 C 12,4 C 12,6 C 93 % 0 % 1008 hPa 0,3 l/m 20,3 km/h (4 Bft)
18.07.2009 18:03 24,0 C 12,4 C 12,9 C 93 % 0 % 1008 hPa 0,0 l/m 19,6 km/h (3 Bft)
18.07.2009 18:06 24,0 C 12,4 C 12,9 C 93 % 0 % 1008 hPa 0,0 l/m 19,5 km/h (3 Bft)
18.07.2009 18:09 24,0 C 12,5 C 13,0 C 93 % 0 % 1008 hPa 0,0 l/m 15,1 km/h (3 Bft)
18.07.2009 18:12 24,0 C 12,6 C 13,0 C 93 % 0 % 1008 hPa 0,0 l/m 19,0 km/h (3 Bft)
18.07.2009 18:15 24,0 C 12,5 C 13,1 C 93 % 0 % 1008 hPa 0,0 l/m 13,3 km/h (3 Bft)
18.07.2009 18:18 24,0 C 12,6 C 13,1 C 93 % 0 % 1008 hPa 0,0 l/m 18,6 km/h (3 Bft)
18.07.2009 18:21 24,0 C 12,6 C 13,2 C 93 % 0 % 1008 hPa 0,0 l/m 15,8 km/h (3 Bft)
18.07.2009 18:24 24,0 C 12,7 C 13,3 C 93 % 0 % 1008 hPa 0,0 l/m 15,8 km/h (3 Bft)
18.07.2009 18:27 24,0 C 12,8 C 13,3 C 93 % 0 % 1008 hPa 0,0 l/m 15,0 km/h (3 Bft)
18.07.2009 18:30 24,0 C 12,8 C 13,1 C 93 % 0 % 1008 hPa 0,0 l/m 15,0 km/h (3 Bft)
18.07.2009 18:33 24,0 C 12,8 C 13,0 C 93 % 0 % 1008 hPa 0,0 l/m 17,3 km/h (3 Bft)
18.07.2009 18:36 24,0 C 12,8 C 13,1 C 93 % 0 % 1008 hPa 0,0 l/m 16,6 km/h (3 Bft)
18.07.2009 18:39 24,0 C 12,8 C 13,1 C 93 % 0 % 1008 hPa 0,0 l/m 17,3 km/h (3 Bft)
18.07.2009 18:42 24,0 C 12,8 C 13,0 C 93 % 0 % 1008 hPa 0,0 l/m 12,3 km/h (3 Bft)
18.07.2009 18:45 24,0 C 12,8 C 12,9 C 93 % 0 % 1008 hPa 0,0 l/m 16,3 km/h (3 Bft)
18.07.2009 18:48 24,0 C 12,8 C 12,8 C 93 % 0 % 1008 hPa 0,0 l/m 16,0 km/h (3 Bft)
18.07.2009 18:51 24,0 C 12,8 C 13,0 C 93 % 0 % 1008 hPa 0,0 l/m 15,8 km/h (3 Bft)
18.07.2009 18:54 24,0 C 12,8 C 13,0 C 93 % 0 % 1008 hPa 0,0 l/m 13,0 km/h (3 Bft)
18.07.2009 18:57 24,0 C 12,8 C 12,9 C 93 % 0 % 1008 hPa 0,0 l/m 13,0 km/h (3 Bft)
18.07.2009 19:00 24,0 C 12,8 C 12,9 C 93 % 0 % 1008 hPa 0,0 l/m 13,0 km/h (3 Bft)
18.07.2009 19:03 24,0 C 12,7 C 12,8 C 93 % 0 % 1008 hPa 0,0 l/m 17,8 km/h (3 Bft)
18.07.2009 19:06 24,0 C 12,7 C 12,9 C 93 % 0 % 1008 hPa 0,0 l/m 14,3 km/h (3 Bft)
18.07.2009 19:09 24,0 C 12,7 C 12,8 C 93 % 0 % 1008 hPa 0,0 l/m 18,5 km/h (3 Bft)
18.07.2009 19:12 24,0 C 12,6 C 12,8 C 93 % 0 % 1008 hPa 0,0 l/m 16,6 km/h (3 Bft)
18.07.2009 19:15 23,9 C 12,6 C 12,8 C 93 % 0 % 1008 hPa 0,3 l/m 17,4 km/h (3 Bft)
18.07.2009 19:18 24,0 C 12,6 C 12,7 C 93 % 0 % 1008 hPa 0,0 l/m 20,8 km/h (4 Bft)
18.07.2009 19:21 23,9 C 12,6 C 12,7 C 93 % 0 % 1008 hPa 0,0 l/m 16,5 km/h (3 Bft)
18.07.2009 19:24 23,9 C 12,6 C 12,7 C 94 % 0 % 1008 hPa 0,0 l/m 16,7 km/h (3 Bft)
18.07.2009 19:27 23,9 C 12,6 C 12,7 C 94 % 0 % 1008 hPa 0,0 l/m 18,1 km/h (3 Bft)
18.07.2009 19:30 23,9 C 12,6 C 12,7 C 94 % 0 % 1009 hPa 0,0 l/m 16,3 km/h (3 Bft)
18.07.2009 19:33 23,9 C 12,5 C 12,7 C 94 % 0 % 1009 hPa 0,0 l/m 14,8 km/h (3 Bft)
18.07.2009 19:36 23,9 C 12,5 C 12,6 C 94 % 0 % 1009 hPa 0,0 l/m 16,3 km/h (3 Bft)
18.07.2009 19:39 23,9 C 12,5 C 12,7 C 94 % 0 % 1009 hPa 0,0 l/m 12,5 km/h (3 Bft)
18.07.2009 19:42 23,9 C 12,5 C 12,7 C 94 % 0 % 1009 hPa 0,3 l/m 14,5 km/h (3 Bft)
18.07.2009 19:45 23,9 C 12,4 C 12,6 C 94 % 0 % 1009 hPa 0,0 l/m 15,1 km/h (3 Bft)
18.07.2009 19:48 23,9 C 12,4 C 12,7 C 94 % 0 % 1009 hPa 0,0 l/m 17,6 km/h (3 Bft)
18.07.2009 19:51 23,9 C 12,5 C 12,7 C 94 % 0 % 1009 hPa 0,0 l/m 10,5 km/h (2 Bft)
18.07.2009 19:54 23,8 C 12,5 C 12,7 C 94 % 0 % 1009 hPa 0,0 l/m 17,7 km/h (3 Bft)
18.07.2009 19:57 23,8 C 12,4 C 12,8 C 95 % 0 % 1009 hPa 0,0 l/m 12,2 km/h (2 Bft)
18.07.2009 20:00 23,9 C 12,5 C 12,7 C 95 % 0 % 1009 hPa 0,0 l/m 11,9 km/h (2 Bft)
18.07.2009 20:03 23,9 C 12,5 C 12,7 C 95 % 0 % 1008 hPa 0,0 l/m 13,4 km/h (3 Bft)
18.07.2009 20:06 23,9 C 12,5 C 12,6 C 95 % 0 % 1009 hPa 0,0 l/m 14,0 km/h (3 Bft)
18.07.2009 20:09 23,9 C 12,4 C 12,6 C 95 % 0 % 1009 hPa 0,0 l/m 11,2 km/h (2 Bft)
18.07.2009 20:12 23,8 C 12,5 C 12,7 C 95 % 0 % 1009 hPa 0,0 l/m 14,6 km/h (3 Bft)
18.07.2009 20:15 23,9 C 12,5 C 12,7 C 95 % 0 % 1009 hPa 0,0 l/m 15,8 km/h (3 Bft)
18.07.2009 20:18 23,9 C 12,4 C 12,7 C 95 % 0 % 1009 hPa 0,0 l/m 13,0 km/h (3 Bft)
18.07.2009 20:21 24,0 C 12,4 C 12,7 C 95 % 0 % 1009 hPa 0,0 l/m 13,3 km/h (3 Bft)
18.07.2009 20:24 24,0 C 12,4 C 12,7 C 95 % 0 % 1009 hPa 0,0 l/m 12,5 km/h (3 Bft)
18.07.2009 20:27 23,9 C 12,4 C 12,7 C 95 % 0 % 1009 hPa 0,0 l/m 12,1 km/h (2 Bft)
18.07.2009 20:30 23,9 C 12,4 C 12,7 C 95 % 0 % 1009 hPa 0,0 l/m 18,3 km/h (3 Bft)
18.07.2009 20:33 23,9 C 12,4 C 12,6 C 95 % 0 % 1009 hPa 0,0 l/m 22,0 km/h (4 Bft)
18.07.2009 20:36 23,9 C 12,4 C 12,7 C 95 % 0 % 1009 hPa 0,0 l/m 16,1 km/h (3 Bft)
18.07.2009 20:39 23,9 C 12,4 C 12,6 C 95 % 0 % 1009 hPa 0,0 l/m 11,8 km/h (2 Bft)
18.07.2009 20:42 23,9 C 12,4 C 12,6 C 95 % 0 % 1009 hPa 0,0 l/m 14,1 km/h (3 Bft)
18.07.2009 20:45 23,9 C 12,4 C 12,6 C 95 % 0 % 1009 hPa 0,0 l/m 13,1 km/h (3 Bft)
18.07.2009 20:48 23,8 C 12,4 C 12,6 C 95 % 0 % 1009 hPa 0,0 l/m 13,1 km/h (3 Bft)
18.07.2009 20:51 23,9 C 12,4 C 12,6 C 95 % 0 % 1009 hPa 0,0 l/m 17,0 km/h (3 Bft)
18.07.2009 20:54 23,9 C 12,4 C 12,6 C 95 % 0 % 1009 hPa 0,0 l/m 14,0 km/h (3 Bft)
18.07.2009 20:57 23,8 C 12,4 C 12,6 C 95 % 0 % 1009 hPa 0,0 l/m 16,8 km/h (3 Bft)
18.07.2009 21:00 23,8 C 12,4 C 12,7 C 95 % 0 % 1009 hPa 0,0 l/m 20,6 km/h (4 Bft)
18.07.2009 21:03 23,8 C 12,4 C 12,7 C 95 % 0 % 1009 hPa 0,0 l/m 19,3 km/h (3 Bft)
18.07.2009 21:06 23,8 C 12,4 C 12,7 C 95 % 0 % 1009 hPa 0,0 l/m 15,5 km/h (3 Bft)
18.07.2009 21:09 23,8 C 12,5 C 12,7 C 95 % 0 % 1009 hPa 0,0 l/m 16,1 km/h (3 Bft)
18.07.2009 21:12 23,8 C 12,5 C 12,7 C 95 % 0 % 1009 hPa 0,0 l/m 14,6 km/h (3 Bft)
18.07.2009 21:15 23,8 C 12,5 C 12,6 C 95 % 0 % 1009 hPa 0,0 l/m 20,5 km/h (4 Bft)
18.07.2009 21:18 23,8 C 12,5 C 12,7 C 95 % 0 % 1009 hPa 0,0 l/m 18,7 km/h (3 Bft)
18.07.2009 21:21 23,8 C 12,5 C 12,7 C 95 % 0 % 1009 hPa 0,0 l/m 20,6 km/h (4 Bft)
18.07.2009 21:24 23,8 C 12,5 C 12,7 C 95 % 0 % 1009 hPa 0,0 l/m 18,2 km/h (3 Bft)
18.07.2009 21:27 23,8 C 12,5 C 12,8 C 95 % 0 % 1009 hPa 0,3 l/m 13,1 km/h (3 Bft)
18.07.2009 21:30 23,8 C 12,5 C 12,8 C 95 % 0 % 1009 hPa 0,0 l/m 16,8 km/h (3 Bft)
18.07.2009 21:33 23,8 C 12,5 C 12,8 C 95 % 0 % 1009 hPa 0,0 l/m 13,3 km/h (3 Bft)
18.07.2009 21:36 23,8 C 12,6 C 12,8 C 95 % 0 % 1009 hPa 0,0 l/m 13,6 km/h (3 Bft)
18.07.2009 21:39 23,8 C 12,6 C 12,7 C 95 % 0 % 1009 hPa 0,0 l/m 21,3 km/h (4 Bft)
18.07.2009 21:42 23,8 C 12,6 C 12,8 C 95 % 0 % 1009 hPa 0,0 l/m 21,4 km/h (4 Bft)
18.07.2009 21:45 23,8 C 12,6 C 12,8 C 95 % 0 % 1009 hPa 0,0 l/m 17,2 km/h (3 Bft)
18.07.2009 21:48 23,8 C 12,7 C 12,8 C 95 % 0 % 1009 hPa 0,0 l/m 28,5 km/h (4 Bft)
18.07.2009 21:51 23,8 C 12,7 C 12,8 C 94 % 0 % 1009 hPa 0,0 l/m 23,0 km/h (4 Bft)
18.07.2009 21:54 23,8 C 12,8 C 12,8 C 94 % 0 % 1009 hPa 0,0 l/m 23,0 km/h (4 Bft)
18.07.2009 21:57 23,8 C 12,7 C 12,8 C 94 % 0 % 1009 hPa 0,0 l/m 19,1 km/h (3 Bft)
18.07.2009 22:00 23,8 C 12,7 C 12,8 C 94 % 0 % 1010 hPa 0,3 l/m 19,6 km/h (3 Bft)
18.07.2009 22:03 23,8 C 12,7 C 12,8 C 94 % 0 % 1010 hPa 0,0 l/m 21,1 km/h (4 Bft)
18.07.2009 22:06 23,7 C 12,8 C 12,8 C 94 % 0 % 1010 hPa 0,0 l/m 21,1 km/h (4 Bft)
18.07.2009 22:09 23,7 C 12,8 C 12,9 C 94 % 0 % 1010 hPa 0,0 l/m 28,8 km/h (4 Bft)
18.07.2009 22:12 23,7 C 12,8 C 12,9 C 94 % 0 % 1010 hPa 0,0 l/m 21,3 km/h (4 Bft)
18.07.2009 22:15 23,7 C 12,8 C 12,8 C 94 % 0 % 1010 hPa 0,0 l/m 21,3 km/h (4 Bft)
18.07.2009 22:18 23,7 C 12,8 C 12,8 C 95 % 0 % 1010 hPa 0,0 l/m 15,7 km/h (3 Bft)
18.07.2009 22:21 23,7 C 12,8 C 12,8 C 95 % 0 % 1010 hPa 0,0 l/m 17,1 km/h (3 Bft)
18.07.2009 22:24 23,7 C 12,8 C 12,9 C 95 % 0 % 1010 hPa 0,0 l/m 15,8 km/h (3 Bft)
18.07.2009 22:27 23,7 C 12,8 C 12,9 C 95 % 0 % 1010 hPa 0,0 l/m 15,8 km/h (3 Bft)
18.07.2009 22:30 23,6 C 12,8 C 12,8 C 95 % 0 % 1010 hPa 0,0 l/m 16,3 km/h (3 Bft)
18.07.2009 22:33 23,6 C 12,8 C 12,9 C 95 % 0 % 1010 hPa 0,0 l/m 17,5 km/h (3 Bft)
18.07.2009 22:36 23,6 C 12,8 C 12,9 C 95 % 0 % 1010 hPa 0,0 l/m 19,0 km/h (3 Bft)
18.07.2009 22:39 23,6 C 12,8 C 12,9 C 95 % 0 % 1010 hPa 0,0 l/m 22,9 km/h (4 Bft)
18.07.2009 22:42 23,6 C 12,8 C 12,8 C 94 % 0 % 1010 hPa 0,0 l/m 25,3 km/h (4 Bft)
18.07.2009 22:45 23,6 C 12,8 C 12,9 C 94 % 0 % 1010 hPa 0,0 l/m 21,8 km/h (4 Bft)
18.07.2009 22:48 23,6 C 12,8 C 12,9 C 94 % 0 % 1010 hPa 0,0 l/m 23,4 km/h (4 Bft)
18.07.2009 22:51 23,6 C 12,8 C 12,8 C 94 % 0 % 1010 hPa 0,0 l/m 23,4 km/h (4 Bft)
18.07.2009 22:54 23,6 C 12,8 C 12,9 C 94 % 0 % 1010 hPa 0,0 l/m 19,6 km/h (3 Bft)
18.07.2009 22:57 23,6 C 12,8 C 12,9 C 94 % 0 % 1010 hPa 0,0 l/m 14,4 km/h (3 Bft)
18.07.2009 23:00 23,6 C 12,8 C 12,9 C 95 % 0 % 1010 hPa 0,0 l/m 14,5 km/h (3 Bft)
18.07.2009 23:03 23,6 C 12,8 C 12,9 C 95 % 0 % 1010 hPa 0,0 l/m 14,8 km/h (3 Bft)
18.07.2009 23:06 23,6 C 12,8 C 12,9 C 95 % 0 % 1010 hPa 0,0 l/m 14,8 km/h (3 Bft)
18.07.2009 23:09 23,5 C 12,8 C 12,9 C 95 % 0 % 1010 hPa 0,0 l/m 17,1 km/h (3 Bft)
18.07.2009 23:12 23,5 C 12,8 C 12,8 C 95 % 0 % 1010 hPa 0,0 l/m 16,3 km/h (3 Bft)
18.07.2009 23:15 23,5 C 12,8 C 12,8 C 95 % 0 % 1010 hPa 0,0 l/m 18,2 km/h (3 Bft)
18.07.2009 23:18 23,5 C 12,8 C 12,8 C 94 % 0 % 1010 hPa 0,0 l/m 21,6 km/h (4 Bft)
18.07.2009 23:21 23,5 C 12,8 C 12,9 C 94 % 0 % 1010 hPa 0,3 l/m 16,8 km/h (3 Bft)
18.07.2009 23:24 23,5 C 12,8 C 12,9 C 94 % 0 % 1010 hPa 0,0 l/m 21,5 km/h (4 Bft)
18.07.2009 23:27 23,5 C 12,8 C 12,9 C 94 % 0 % 1010 hPa 0,0 l/m 17,1 km/h (3 Bft)
18.07.2009 23:30 23,5 C 12,8 C 12,9 C 94 % 0 % 1010 hPa 0,0 l/m 14,8 km/h (3 Bft)
18.07.2009 23:33 23,5 C 12,8 C 12,9 C 94 % 0 % 1010 hPa 0,0 l/m 17,3 km/h (3 Bft)
18.07.2009 23:36 23,5 C 12,8 C 12,9 C 94 % 0 % 1010 hPa 0,0 l/m 20,5 km/h (4 Bft)
18.07.2009 23:39 23,5 C 12,8 C 12,9 C 94 % 0 % 1010 hPa 0,0 l/m 22,7 km/h (4 Bft)
18.07.2009 23:42 23,5 C 12,8 C 12,8 C 93 % 0 % 1010 hPa 0,0 l/m 22,7 km/h (4 Bft)
18.07.2009 23:45 23,5 C 12,8 C 12,7 C 93 % 0 % 1010 hPa 0,0 l/m 29,6 km/h (5 Bft)
18.07.2009 23:48 23,5 C 12,8 C 12,7 C 93 % 0 % 1010 hPa 0,0 l/m 25,2 km/h (4 Bft)
18.07.2009 23:51 23,5 C 12,8 C 12,6 C 93 % 0 % 1010 hPa 0,0 l/m 26,5 km/h (4 Bft)
18.07.2009 23:54 23,4 C 12,8 C 12,6 C 93 % 0 % 1010 hPa 0,0 l/m 22,8 km/h (4 Bft)
18.07.2009 23:57 23,4 C 12,7 C 12,6 C 93 % 0 % 1010 hPa 0,0 l/m 20,6 km/h (4 Bft)
_ Min-Zeit 12:48 11:09 10:00 00:02 - 00:02 - 07:27
Minimum _ 22,6 C 10,8 C 11,3 C 77 % - 1003 hPa - 5,0 km/h (1 Bft)
_ Max-Zeit 00:02 00:02 00:02 09:42 00:02 22:00 07:36 00:26
Maximum _ 24,4 C 18,1 C 17,6 C 95 % 0 % 1010 hPa 1,4 l/m 49,4 km/h
NW (6 Bft)
Durchschnitt _ 23,9 C 12,9 C 13,4 C 91 % #0 min. 1007 hPa #43,1 l/m 19,0 km/h (3 Bft)